Location: Chassagnes
(44.4047°N, 4.1657°E)
Time: 12:20:12
(UTC+00:00)

Cosmos 1892 - Pass Details

Date: 27 October 2020
Orbit: 504 x 523 km, 82.5° (Epoch: 23 November)

Event Time Altitude Azimuth Distance (km) Brightness Sun altitude
Rises 17:25:40 0° 3° (N) 2,664 6.2 -8.9°
Reaches altitude 10° 17:28:06 10° 16° (NNE) 1,771 5.2 -9.3°
Maximum altitude 17:31:22 25° 74° (ENE) 1,079 3.7 -9.9°
Drops below altitude 10° 17:34:37 10° 131° (SE) 1,761 5.0 -10.4°
Sets 17:37:01 0° 145° (SE) 2,643 6.0 -10.9°
